CW6734 Weather Reports


Display with metric or nautical units.
time (UTC)temp
F
wind
direction
speed
MPH
gust
MPH
rain 1hr
in
rain 24hr
in
rain mn
in
humidity
%
barometer
mb
20170817192622 85 273 3.0 12.0 0.00 0.02 0.02 67 1009.7
20170817192006 86 195 3.0 10.0 0.00 0.02 0.02 65 1009.9
20170817191700 86 209 3.0 10.0 0.00 0.02 0.02 67 1009.9
20170817191357 86 274 3.0 10.0 0.00 0.02 0.02 64 1009.9
20170817191051 87 225 2.0 10.0 0.00 0.02 0.02 64 1010.0
20170817184936 88 283 3.0 12.0 0.00 0.02 0.02 65 1010.4
20170817184623 88 174 2.0 9.0 0.00 0.02 0.02 66 1010.5
20170817184002 87 276 2.0 8.0 0.00 0.02 0.02 66 1010.6
20170817183401 87 252 3.0 10.0 0.00 0.02 0.02 68 1010.5
20170817183101 87 255 2.0 10.0 0.00 0.02 0.02 67 1010.5
20170817182146 87 292 2.0 10.0 0.00 0.02 0.02 69 1010.7
20170817181231 86 17 3.0 9.0 0.00 0.02 0.02 67 1010.7
20170817180604 86 257 2.0 8.0 0.00 0.02 0.02 69 1010.7
20170817180251 86 196 2.0 8.0 0.00 0.02 0.02 71 1010.7
20170817175028 85 219 1.0 6.0 0.00 0.02 0.02 71 1011.0
20170817174115 85 254 2.0 9.0 0.00 0.02 0.02 71 1011.1
20170817173807 85 313 2.0 9.0 0.00 0.02 0.02 70 1011.1
20170817172855 85 206 2.0 9.0 0.00 0.02 0.02 72 1011.2
20170817172244 85 238 2.0 8.0 0.00 0.02 0.02 73 1011.5
20170817171935 84 244 2.0 8.0 0.00 0.02 0.02 74 1011.5
20170817171629 84 188 3.0 11.0 0.00 0.02 0.02 73 1011.5
20170817171333 84 219 3.0 11.0 0.00 0.02 0.02 74 1011.6
20170817171022 84 210 2.0 11.0 0.00 0.02 0.02 77 1011.7
20170817165807 82 290 1.0 11.0 0.00 0.02 0.02 78 1011.9
20170817165207 83 207 1.0 9.0 0.00 0.02 0.02 76 1011.9
20170817163700 83 294 2.0 7.0 0.00 0.02 0.02 77 1012.1
20170817163404 83 240 2.0 7.0 0.00 0.02 0.02 77 1012.0
20170817163059 82 263 1.0 7.0 0.00 0.02 0.02 79 1012.1
20170817161847 81 266 1.0 5.0 0.00 0.02 0.02 80 1012.3
20170817160929 81 223 1.0 5.0 0.00 0.02 0.02 78 1012.3
20170817160324 81 144 1.0 4.0 0.00 0.02 0.02 81 1012.4
20170817160025 81 30 1.0 4.0 0.00 0.02 0.02 81 1012.5
20170817155724 81 161 1.0 4.0 0.00 0.02 0.02 80 1012.5
20170817155417 80 186 1.0 4.0 0.00 0.02 0.02 81 1012.6
20170817155111 80 281 1.0 4.0 0.00 0.02 0.02 80 1012.8
20170817154801 80 190 1.0 4.0 0.00 0.02 0.02 80 1012.8
20170817154503 80 192 1.0 4.0 0.00 0.02 0.02 81 1012.8
20170817153847 80 150 1.0 4.0 0.00 0.02 0.02 80 1012.9
20170817153533 80 30 0.0 4.0 0.00 0.02 0.02 80 1012.9
20170817153227 80 167 0.0 4.0 0.00 0.02 0.02 80 1012.8
20170817152926 80 284 0.0 4.0 0.00 0.02 0.02 83 1012.9
20170817152328 79 265 0.0 2.0 0.00 0.02 0.02 84 1012.9
20170817152023 79 142 0.0 2.0 0.00 0.02 0.02 86 1013.0
20170817151100 77 248 0.0 4.0 0.00 0.02 0.02 86 1013.2
20170817150751 77 184 0.0 4.0 0.00 0.02 0.02 86 1013.3
20170817150443 77 227 0.0 0.0 0.00 0.02 0.02 86 1013.3
20170817145832 77 183 0.0 0.0 0.00 0.02 0.02 85 1013.4
20170817145529 77 287 0.0 0.0 0.00 0.02 0.02 85 1013.4
20170817145229 77 287 0.0 0.0 0.00 0.02 0.02 86 1013.4
20170817144621 77 287 0.0 0.0 0.00 0.02 0.02 85 1013.5
20170817144324 77 287 0.0 1.0 0.00 0.02 0.02 85 1013.5
20170817144023 77 287 1.0 3.0 0.00 0.02 0.02 87 1013.6
20170817143401 76 201 0.0 3.0 0.00 0.02 0.02 87 1013.5
20170817142751 76 110 0.0 3.0 0.00 0.02 0.02 87 1013.6
20170817142439 75 297 0.0 3.0 0.00 0.02 0.02 88 1013.7
20170817142141 75 204 0.0 3.0 0.00 0.02 0.02 91 1013.7
20170817141837 75 233 0.0 2.0 0.00 0.02 0.02 91 1013.8
20170817141530 74 213 0.0 0.0 0.00 0.02 0.02 90 1013.7
20170817141227 74 131 0.0 0.0 0.00 0.02 0.02 91 1013.7
20170817140923 74 273 0.0 0.0 0.00 0.02 0.02 91 1013.7
20170817140312 73 228 0.0 0.0 0.00 0.02 0.02 91 1013.7
20170817135057 73 156 0.0 1.0 0.00 0.02 0.02 90 1013.7
20170817134134 73 159 0.0 1.0 0.04 0.02 0.02 90 1013.9
20170817133821 73 254 0.0 0.0 0.04 0.02 0.02 91 1013.9
20170817133511 72 254 0.0 0.0 0.04 0.02 0.02 91 1013.9
20170817133209 72 254 0.0 0.0 0.04 0.02 0.02 91 1013.9
20170817131935 72 254 0.0 1.0 0.00 0.01 0.01 90 1014.1
20170817131629 72 254 0.0 0.0 0.00 0.01 0.01 90 1014.1
20170817131323 72 254 0.0 0.0 0.00 0.01 0.01 90 1014.2
20170817131014 72 254 0.0 0.0 0.00 0.00 0.00 90 1014.1
20170817130705 72 254 0.0 1.0 0.00 0.00 0.00 90 1014.2
20170817125755 72 254 0.0 0.0 0.00 0.00 0.00 90 1014.1
20170817125444 72 254 0.0 1.0 0.00 0.00 0.00 90 1014.1
20170817124829 71 254 0.0 1.0 0.00 0.00 0.00 91 1014.2
20170817124218 71 287 0.0 0.0 0.00 0.00 0.00 91 1014.2
20170817123612 71 259 0.0 0.0 0.00 0.00 0.00 92 1014.2
20170817122959 71 216 0.0 0.0 0.00 0.00 0.00 92 1014.1
20170817122650 70 216 0.0 0.0 0.00 0.00 0.00 92 1014.1
20170817122352 70 202 0.0 0.0 0.00 0.00 0.00 92 1014.0
20170817122049 70 202 0.0 2.0 0.00 0.00 0.00 93 1014.0
20170817121743 70 143 0.0 3.0 0.00 0.00 0.00 93 1013.9
20170817121441 70 146 0.0 3.0 0.00 0.00 0.00 92 1013.9
20170817121143 69 146 0.0 0.0 0.00 0.00 0.00 93 1014.0
20170817120838 69 146 0.0 0.0 0.00 0.00 0.00 92 1014.0
20170817120533 69 146 0.0 0.0 0.00 0.00 0.00 92 1014.0
20170817120223 69 161 0.0 0.0 0.00 0.00 0.00 92 1013.9
20170817115923 68 161 0.0 0.0 0.00 0.00 0.00 92 1013.9
20170817115015 68 161 0.0 0.0 0.00 0.00 0.00 92 1013.9
20170817114701 68 161 0.0 0.0 0.00 0.00 0.00 92 1014.0
20170817113756 68 161 0.0 0.0 0.00 0.00 0.00 92 1014.0
20170817113441 68 161 0.0 0.0 0.00 0.00 0.00 92 1013.9
20170817112851 68 161 0.0 0.0 0.00 0.00 0.00 92 1014.0
20170817112245 68 161 0.0 0.0 0.00 0.00 0.00 92 1014.0
20170817111939 68 161 0.0 0.0 0.00 0.00 0.00 92 1014.0
20170817111326 67 157 0.0 0.0 0.00 0.00 0.00 92 1014.1
20170817110417 67 157 0.0 0.0 0.00 0.00 0.00 92 1014.1
20170817110119 67 157 0.0 0.0 0.00 0.00 0.00 92 1014.1
20170817105810 67 157 0.0 0.0 0.00 0.00 0.00 92 1014.1
20170817105508 67 157 0.0 0.0 0.00 0.00 0.00 92 1014.0
20170817105207 67 157 0.0 0.0 0.00 0.00 0.00 92 1014.0
20170817104548 67 157 0.0 0.0 0.00 0.00 0.00 92 1013.9
20170817103937 67 157 0.0 0.0 0.00 0.00 0.00 92 1013.9
20170817103321 67 157 0.0 0.0 0.00 0.00 0.00 92 1013.8
20170817102725 67 157 0.0 0.0 0.00 0.00 0.00 91 1013.8
20170817095942 67 157 0.0 0.0 0.00 0.00 0.00 91 1013.7
20170817095032 67 157 0.0 0.0 0.00 0.00 0.00 91 1013.7
20170817094123 67 157 0.0 0.0 0.00 0.00 0.00 91 1013.6
20170817093811 67 157 0.0 0.0 0.00 0.00 0.00 91 1013.6
20170817093152 67 157 0.0 0.0 0.00 0.00 0.00 91 1013.7
20170817092245 67 157 0.0 0.0 0.00 0.00 0.00 91 1013.6
20170817091639 67 157 0.0 0.0 0.00 0.00 0.00 91 1013.6
20170817091337 67 157 0.0 0.0 0.00 0.00 0.00 91 1013.6
20170817091041 67 157 0.0 0.0 0.00 0.00 0.00 91 1013.7
20170817090743 67 157 0.0 0.0 0.00 0.00 0.00 91 1013.6
20170817090444 67 157 0.0 0.0 0.00 0.00 0.00 91 1013.6
20170817085537 68 157 0.0 0.0 0.00 0.00 0.00 91 1013.5
20170817085236 68 157 0.0 0.0 0.00 0.00 0.00 91 1013.5
20170817084929 68 157 0.0 0.0 0.00 0.00 0.00 91 1013.5
20170817084627 68 157 0.0 0.0 0.00 0.00 0.00 91 1013.4
20170817084329 68 157 0.0 0.0 0.00 0.00 0.00 91 1013.4
20170817083709 68 157 0.0 0.0 0.00 0.00 0.00 91 1013.3
20170817083408 68 157 0.0 0.0 0.00 0.00 0.00 91 1013.3
20170817083056 68 157 0.0 0.0 0.00 0.00 0.00 91 1013.4
20170817082434 68 157 0.0 0.0 0.00 0.00 0.00 91 1013.5
20170817081502 68 157 0.0 0.0 0.00 0.00 0.00 90 1013.5
20170817080539 68 157 0.0 0.0 0.00 0.00 0.00 90 1013.5
20170817080228 68 157 0.0 0.0 0.00 0.00 0.00 90 1013.4
20170817075926 68 157 0.0 0.0 0.00 0.00 0.00 90 1013.4
20170817075630 68 157 0.0 0.0 0.00 0.00 0.00 90 1013.4
20170817075332 68 157 0.0 0.0 0.00 0.00 0.00 90 1013.4
20170817075021 68 157 0.0 0.0 0.00 0.00 0.00 90 1013.4
20170817074714 68 157 0.0 0.0 0.00 0.00 0.00 90 1013.4
20170817074410 68 157 0.0 0.0 0.00 0.00 0.00 90 1013.5
20170817074112 68 157 0.0 0.0 0.00 0.00 0.00 90 1013.5
20170817073802 68 157 0.0 0.0 0.00 0.00 0.00 90 1013.6
20170817073502 68 157 0.0 0.0 0.00 0.00 0.00 90 1013.6
20170817072854 68 157 0.0 0.0 0.00 0.00 0.00 90 1013.7
20170817071641 69 157 0.0 0.0 0.00 0.00 0.00 89 1013.7
20170817071332 69 157 0.0 0.0 0.00 0.00 0.00 89 1013.7
20170817071034 69 157 0.0 0.0 0.00 0.00 0.00 89 1013.8
20170817070426 69 157 0.0 0.0 0.00 0.00 0.00 89 1014.0
20170817064607 69 157 0.0 0.0 0.00 0.00 0.00 89 1014.1
20170817064255 69 157 0.0 0.0 0.00 0.00 0.00 89 1014.2
20170817063639 69 157 0.0 1.0 0.00 0.00 0.00 89 1014.2
20170817062736 69 157 0.0 0.0 0.00 0.00 0.00 89 1014.3
20170817062433 69 157 0.0 0.0 0.00 0.00 0.00 89 1014.3
20170817062123 69 157 0.0 0.0 0.00 0.00 0.00 89 1014.3
20170817061513 69 157 0.0 0.0 0.00 0.00 0.00 88 1014.4
20170817061206 69 157 0.0 0.0 0.00 0.00 0.00 88 1014.4
20170817060907 70 157 0.0 0.0 0.00 0.00 0.00 88 1014.4
20170817060609 70 157 0.0 0.0 0.00 0.00 0.00 88 1014.4
20170817055647 70 157 0.0 0.0 0.00 0.00 0.00 88 1014.6
20170817055334 70 157 0.0 0.0 0.00 0.00 0.00 88 1014.7
20170817055030 70 157 0.0 0.0 0.00 0.00 0.00 88 1014.8
20170817054415 70 157 0.0 0.0 0.00 0.00 0.00 88 1014.8
20170817054109 70 157 0.0 0.0 0.00 0.00 0.00 87 1014.8
20170817053807 70 157 0.0 0.0 0.00 0.00 0.00 88 1014.8
20170817053504 70 157 0.0 0.0 0.00 0.00 0.00 87 1014.7
20170817052849 70 157 0.0 0.0 0.00 0.00 0.00 87 1014.8
20170817052540 70 157 0.0 0.0 0.00 0.00 0.00 87 1014.7
20170817052238 70 157 0.0 0.0 0.00 0.00 0.00 87 1014.8
20170817050727 70 157 0.0 0.0 0.00 0.00 0.00 87 1014.8
20170817050420 70 157 0.0 0.0 0.00 0.00 0.00 87 1014.8
20170817050110 70 157 0.0 0.0 0.00 0.00 0.00 87 1014.9
20170817045808 70 157 0.0 0.0 0.00 0.00 0.00 87 1014.9
20170817044550 70 157 0.0 0.0 0.00 0.00 0.00 87 1015.0
20170817044239 70 157 0.0 0.0 0.00 0.00 0.00 87 1015.0
20170817043327 70 157 0.0 0.0 0.00 0.00 0.00 87 1015.2
20170817041750 71 157 0.0 2.0 0.00 0.00 0.00 87 1015.2
20170817040840 71 113 0.0 0.0 0.00 0.00 0.00 87 1015.2
20170817040236 71 113 0.0 0.0 0.00 0.00 0.00 87 1015.3
20170817035627 71 113 0.0 0.0 0.00 0.00 0.00 86 1015.2
20170817035013 71 113 0.0 0.0 0.00 0.00 0.00 86 1015.3
20170817034115 71 113 0.0 0.0 0.00 0.00 0.00 86 1015.4
20170817033455 72 113 0.0 0.0 0.00 0.00 0.00 86 1015.3
20170817032838 72 113 0.0 0.0 0.00 0.00 0.00 85 1015.3
20170817032534 72 113 0.0 0.0 0.00 0.00 0.00 85 1015.4
20170817032234 72 113 0.0 0.0 0.00 0.00 0.00 85 1015.4
20170817031926 72 113 0.0 0.0 0.00 0.00 0.00 85 1015.3
20170817031311 72 113 0.0 0.0 0.00 0.00 0.00 84 1015.4
20170817031006 72 113 0.0 0.0 0.00 0.00 0.00 84 1015.4
20170817030048 73 113 0.0 0.0 0.00 0.00 0.00 84 1015.4
20170817025446 73 113 0.0 0.0 0.00 0.00 0.00 84 1015.4
20170817024835 73 113 0.0 0.0 0.00 0.00 0.00 84 1015.4
20170817024227 73 113 0.0 0.0 0.00 0.00 0.00 84 1015.4
20170817023923 73 113 0.0 0.0 0.00 0.00 0.00 84 1015.4
20170817023618 73 113 0.0 0.0 0.00 0.00 0.00 84 1015.5
20170817023307 73 113 0.0 0.0 0.00 0.00 0.00 84 1015.5
20170817022958 73 113 0.0 0.0 0.00 0.00 0.00 84 1015.5
20170817022346 73 138 0.0 0.0 0.00 0.00 0.00 83 1015.4
20170817022048 73 138 0.0 1.0 0.00 0.00 0.00 83 1015.4
20170817021447 73 138 0.0 0.0 0.00 0.00 0.00 83 1015.4
20170817020233 74 138 0.0 0.0 0.00 0.00 0.00 82 1015.3
20170817015922 74 138 0.0 0.0 0.00 0.00 0.00 82 1015.3
20170817015609 74 138 0.0 1.0 0.00 0.00 0.00 82 1015.4
20170817015303 74 138 0.0 0.0 0.00 0.00 0.00 82 1015.3
20170817014954 74 138 0.0 0.0 0.00 0.00 0.00 82 1015.3
20170817014652 74 138 0.0 0.0 0.00 0.00 0.00 82 1015.3
20170817013725 74 138 0.0 0.0 0.00 0.00 0.00 81 1015.2
20170817012803 74 138 0.0 0.0 0.00 0.00 0.00 80 1015.2
20170817012454 74 138 0.0 0.0 0.00 0.00 0.00 80 1015.2
20170817012157 74 138 0.0 0.0 0.00 0.00 0.00 80 1015.2
20170817011845 74 138 0.0 0.0 0.00 0.00 0.00 79 1015.2
20170817010316 75 138 0.0 0.0 0.00 0.00 0.00 78 1015.1
20170817005704 75 138 0.0 0.0 0.00 0.00 0.00 78 1015.0
20170817005401 75 138 0.0 0.0 0.00 0.00 0.00 77 1015.0
20170817005100 75 138 0.0 0.0 0.00 0.00 0.00 77 1015.0
20170817004754 75 138 0.0 1.0 0.00 0.00 0.00 76 1014.9
20170817003843 76 138 0.0 0.0 0.00 0.00 0.00 76 1014.8
20170817003535 76 138 0.0 0.0 0.00 0.00 0.00 75 1014.8
20170817003221 76 138 0.0 0.0 0.00 0.00 0.00 75 1014.8
20170817002908 76 138 0.0 0.0 0.00 0.00 0.00 74 1014.7
20170817002259 77 138 0.0 1.0 0.00 0.00 0.00 74 1014.7
20170817001951 77 138 0.0 0.0 0.00 0.00 0.00 73 1014.7
20170817000016 78 151 0.0 0.0 0.00 0.00 0.00 73 1014.6
20170816234505 79 151 0.0 0.0 0.00 0.00 0.00 71 1014.6
20170816234158 79 151 0.0 0.0 0.00 0.00 0.00 69 1014.6
20170816233847 79 151 0.0 0.0 0.00 0.00 0.00 69 1014.6
20170816233233 80 151 0.0 0.0 0.00 0.00 0.00 70 1014.6
20170816232314 81 151 0.0 2.0 0.00 0.00 0.00 67 1014.5
20170816232015 81 151 0.0 2.0 0.00 0.00 0.00 67 1014.5
20170816231412 81 152 0.0 1.0 0.00 0.00 0.00 67 1014.4
20170816231110 81 165 0.0 1.0 0.00 0.00 0.00 66 1014.4
20170816230809 81 165 0.0 1.0 0.00 0.00 0.00 66 1014.4
20170816230508 82 28 0.0 2.0 0.00 0.00 0.00 65 1014.4
20170816230158 82 107 0.0 0.0 0.00 0.00 0.00 66 1014.3
20170816225900 82 107 0.0 3.0 0.00 0.00 0.00 65 1014.3
20170816225551 82 105 0.0 3.0 0.00 0.00 0.00 64 1014.3
20170816225245 82 111 0.0 3.0 0.00 0.00 0.00 64 1014.3
20170816224938 83 111 0.0 3.0 0.00 0.00 0.00 63 1014.3
20170816224316 83 177 0.0 1.0 0.00 0.00 0.00 63 1014.4
20170816223709 83 219 0.0 4.0 0.00 0.00 0.00 62 1014.3
20170816223406 83 219 0.0 4.0 0.00 0.00 0.00 61 1014.4
20170816222455 84 83 1.0 4.0 0.00 0.00 0.00 61 1014.3
20170816222148 84 190 1.0 4.0 0.00 0.00 0.00 59 1014.3
20170816221839 85 173 0.0 4.0 0.00 0.00 0.00 59 1014.4
20170816221527 85 0 0.0 2.0 0.00 0.00 0.00 58 1014.4
20170816215940 85 134 0.0 2.0 0.00 0.00 0.00 59 1014.4
20170816215331 85 134 0.0 5.0 0.00 0.00 0.00 60 1014.4
20170816214400 85 134 1.0 3.0 0.00 0.00 0.00 59 1014.5
20170816214058 85 184 0.0 3.0 0.00 0.00 0.00 57 1014.6
20170816213749 86 150 0.0 3.0 0.00 0.00 0.00 57 1014.6
20170816213448 86 224 0.0 1.0 0.00 0.00 0.00 57 1014.6
20170816212844 86 135 0.0 5.0 0.00 0.00 0.00 58 1014.6
20170816212248 86 132 0.0 3.0 0.00 0.00 0.00 58 1014.7
20170816211938 86 111 0.0 3.0 0.00 0.00 0.00 60 1014.8
20170816211330 86 180 0.0 1.0 0.00 0.00 0.00 62 1014.8
20170816211025 85 191 0.0 1.0 0.00 0.00 0.00 61 1014.8
20170816205135 84 76 0.0 2.0 0.00 0.00 0.00 67 1014.9
20170816204833 83 63 0.0 2.0 0.00 0.00 0.00 66 1014.9
20170816204220 82 194 0.0 0.0 0.00 0.00 0.00 69 1015.0
20170816203920 82 194 0.0 0.0 0.00 0.00 0.00 68 1015.0
20170816203619 82 194 0.0 0.0 0.00 0.00 0.00 68 1015.0
20170816203305 82 194 0.0 0.0 0.00 0.00 0.00 69 1015.0
20170816203004 82 194 0.0 1.0 0.00 0.00 0.00 70 1015.1
20170816201431 82 194 0.0 0.0 0.00 0.00 0.00 68 1015.3
20170816201126 83 194 0.0 0.0 0.00 0.00 0.00 68 1015.2
20170816200826 83 194 0.0 0.0 0.00 0.00 0.00 69 1015.2
20170816200517 83 194 0.0 0.0 0.00 0.00 0.00 70 1015.2
20170816200220 83 194 0.0 0.0 0.00 0.00 0.00 67 1015.3
20170816194658 82 194 0.0 2.0 0.00 0.00 0.00 66 1015.4
20170816194354 82 204 0.0 2.0 0.00 0.00 0.00 66 1015.4
20170816193739 82 57 0.0 0.0 0.00 0.00 0.00 72 1015.4
20170816193434 82 57 0.0 0.0 0.00 0.00 0.00 72 1015.4